CW9804 Weather Reports


Display with metric or nautical units.
time (UTC)temp
F
wind
direction
speed
MPH
gust
MPH
rain 1hr
in
rain 24hr
in
rain mn
in
humidity
%
barometer
mb
20260902220411 66 159 0.0 0.0 0.00 0.00 0.00 81 1021.0
20260902214911 66 159 1.0 2.0 0.00 0.24 0.24 79 1021.1
20260902213411 66 159 1.0 2.0 0.00 0.24 0.24 81 1021.1
20260902171911 75 95 0.0 1.0 0.00 0.24 0.24 70 1019.2
20260902170411 77 95 1.0 2.0 0.00 0.24 0.24 65 1019.1
20260902164911 78 95 2.0 3.0 0.00 0.24 0.24 62 1019.2
20260902163411 79 80 0.0 0.0 0.00 0.24 0.24 65 1019.4
20260902161910 79 80 0.0 0.0 0.00 0.24 0.24 62 1019.2
20260902160410 80 80 0.0 2.0 0.00 0.24 0.24 59 1019.3
20260902154911 81 59 2.0 4.0 0.00 0.24 0.24 56 1019.3
20260902153411 81 110 3.0 6.0 0.00 0.24 0.24 54 1019.2
20260902151911 81 53 2.0 6.0 0.00 0.24 0.24 58 1019.3
20260902150411 81 39 1.0 4.0 0.00 0.24 0.24 55 1019.3
20260902144911 82 55 1.0 4.0 0.00 0.24 0.24 57 1019.6
20260902143411 81 45 3.0 5.0 0.00 0.24 0.24 55 1019.6
20260902141910 81 34 1.0 6.0 0.00 0.24 0.24 57 1019.9
20260902140410 81 49 3.0 8.0 0.00 0.24 0.24 56 1020.2
20260902134910 81 96 3.0 6.0 0.00 0.24 0.24 57 1020.2
20260902133410 82 131 0.0 4.0 0.00 0.24 0.24 54 1020.3
20260902131910 81 166 1.0 5.0 0.00 0.24 0.24 57 1020.6
20260902130410 80 53 0.0 4.0 0.00 0.24 0.24 57 1020.7
20260902124911 79 96 3.0 9.0 0.00 0.24 0.24 56 1020.9
20260902123411 79 46 3.0 4.0 0.00 0.24 0.24 58 1021.0
20260902121911 78 360 1.0 4.0 0.00 0.24 0.24 58 1021.2
20260902120411 78 82 1.0 3.0 0.00 0.24 0.24 59 1021.4
20260902114911 78 46 1.0 2.0 0.00 0.24 0.24 62 1021.7
20260902113410 77 61 1.0 4.0 0.00 0.24 0.24 59 1021.8
20260902111910 77 87 2.0 4.0 0.00 0.24 0.24 60 1021.9
20260902110410 77 71 1.0 3.0 0.00 0.24 0.24 58 1022.1
20260902104910 75 61 1.0 5.0 0.00 0.24 0.24 62 1022.4
20260902103410 75 86 0.0 5.0 0.00 0.24 0.24 66 1022.5
20260902101910 73 61 1.0 3.0 0.00 0.24 0.24 66 1022.8
20260902100409 72 52 3.0 5.0 0.00 0.24 0.24 71 1022.8
20260902094910 71 32 0.0 4.0 0.00 0.24 0.24 75 1022.9
20260902093410 70 311 1.0 3.0 0.00 0.24 0.24 75 1023.0
20260902091910 69 41 0.0 3.0 0.00 0.24 0.24 79 1023.0
20260902090410 69 310 1.0 4.0 0.01 0.24 0.24 81 1023.0
20260902084910 68 42 0.0 2.0 0.01 0.24 0.24 83 1023.2
20260902081910 66 296 2.0 5.0 0.01 0.24 0.24 87 1023.1
20260902080410 65 292 2.0 4.0 0.00 0.23 0.23 88 1023.2
20260902074911 65 300 2.0 4.0 0.00 0.23 0.23 89 1023.2
20260902073410 64 295 0.0 3.0 0.00 0.23 0.23 90 1023.0
20260902071911 63 302 0.0 3.0 0.00 0.23 0.23 93 1023.0
20260902070410 62 302 3.0 5.0 0.00 0.23 0.23 93 1023.0
20260902064910 62 281 1.0 2.0 0.00 0.23 0.23 94 1022.8
20260902063410 62 282 2.0 3.0 0.00 0.23 0.23 94 1022.8
20260902061910 62 269 2.0 3.0 0.00 0.23 0.23 94 1022.7
20260902060410 61 237 1.0 4.0 0.00 0.23 0.23 95 1022.6
20260902054912 61 266 2.0 6.0 0.00 0.23 0.23 95 1022.7
20260902053412 60 240 2.0 7.0 0.00 0.23 0.23 95 1022.6
20260902051912 60 254 2.0 3.0 0.00 0.23 0.23 96 1022.5
20260902050412 60 253 0.0 4.0 0.00 0.23 0.23 95 1022.3
20260902044912 60 225 1.0 2.0 0.00 0.23 0.23 95 1022.3
20260902043411 60 249 1.0 4.0 0.00 0.23 0.23 95 1022.3
20260902041911 60 305 2.0 4.0 0.00 0.23 0.23 95 1022.4
20260902040411 60 261 0.0 0.0 0.00 0.23 0.23 95 1022.0
20260902034912 60 261 0.0 1.0 0.00 0.23 0.23 94 1022.1
20260902031912 60 243 2.0 4.0 0.01 0.23 0.23 94 1022.3
20260902030412 60 244 1.0 3.0 0.10 0.23 0.23 94 1022.3
20260902024912 60 216 1.0 4.0 0.23 0.23 0.23 93 1022.2
20260902023411 60 285 2.0 4.0 0.23 0.23 0.23 92 1022.1
20260902021911 61 143 0.0 1.0 0.22 0.22 0.22 90 1022.0
20260902020411 63 144 0.0 4.0 0.13 0.13 0.13 86 1022.0
20260902014911 64 292 4.0 8.0 0.00 0.00 0.00 81 1022.9
20260902013411 63 236 2.0 4.0 0.00 0.00 0.00 80 1022.6
20260902011911 64 255 4.0 4.0 0.00 0.00 0.00 78 1022.6
20260902010411 64 219 2.0 4.0 0.00 0.00 0.00 78 1022.7
20260902004911 64 230 0.0 3.0 0.00 0.00 0.00 79 1022.8
20260902003411 63 270 4.0 9.0 0.00 0.00 0.00 79 1022.9
20260901224911 61 282 0.0 3.0 0.00 0.00 0.00 77 1021.7